C/2016 A1 ( PanSTARRS )

Japanese version
Home page
Updated on November 20, 2018

---------------------------------------------------------------------

* Profile

Discovery Date January 1, 2016
Magnitude 19.3 mag
Discoverer Pan-STARRS 1 telescope (Haleakala)

* Pictures

* Orbital Elements

Epoch 2017 Nov. 23.0 TT = JDT 2458080.5
T 2017 Nov. 23.37193 TT                                 MPCW
q   5.3277681            (2000.0)            P               Q
z  -0.0003736      Peri.   10.32027     -0.53513304     +0.51121001
 +/-0.0000004      Node   128.17453     +0.70123299     -0.17512417
e   1.0019903      Incl.  121.18575     +0.47106785     +0.84142489
From 1625 observations 2016 Jan. 1-2018 Sept. 12, mean residual 0".4.

* Finding Charts

* Magnitudes Graph

        m1 = 1.2 + 5 log d + 15.0 log r

---------------------------------------------------------------------

The orbital elements are published on M.P.E.C. 2018-S50.
The charts are made with StellaNavigator Ver.10 (AstroArts).
The magnitudes graphs are made with Comet for Windows.

---------------------------------------------------------------------

Copyright(C) Seiichi Yoshida (comet@aerith.net). All rights reserved.